FW8079 Weather Reports


Display with metric or nautical units.
time (UTC)temp
F
wind
direction
speed
MPH
gust
MPH
rain 1hr
in
rain 24hr
in
rain mn
in
humidity
%
barometer
mb
20260510175453 78 251 2.0 5.0 0.00 0.00 0.00 50 1010.0
20260510174948 78 116 4.0 5.0 0.00 0.00 0.00 52 1010.1
20260510174447 78 107 4.0 4.0 0.00 0.00 0.00 53 1010.2
20260510173944 77 121 3.0 8.0 0.00 0.00 0.00 53 1009.9
20260510173439 78 184 3.0 4.0 0.00 0.00 0.00 51 1010.2
20260510172936 77 109 4.0 4.0 0.00 0.00 0.00 51 1010.1
20260510172431 76 112 4.0 6.0 0.00 0.00 0.00 52 1010.1
20260510171928 75 107 3.0 9.0 0.00 0.00 0.00 54 1010.1
20260510171425 75 176 2.0 7.0 0.00 0.00 0.00 55 1010.4
20260510170922 75 224 1.0 6.0 0.00 0.00 0.00 56 1010.1
20260510170419 75 131 9.0 12.0 0.00 0.00 0.00 55 1010.2
20260510165914 75 145 2.0 7.0 0.00 0.00 0.00 56 1010.4
20260510165410 75 169 2.0 8.0 0.00 0.00 0.00 58 1010.5
20260510164907 76 160 3.0 5.0 0.00 0.00 0.00 57 1010.6
20260510164404 75 181 2.0 5.0 0.00 0.00 0.00 59 1010.5
20260510163859 75 160 2.0 3.0 0.00 0.00 0.00 62 1010.5
20260510163355 75 120 5.0 5.0 0.00 0.00 0.00 64 1010.5
20260510162849 74 95 3.0 5.0 0.00 0.00 0.00 65 1010.7
20260510162347 74 153 2.0 4.0 0.00 0.00 0.00 65 1010.8
20260510161842 73 136 3.0 4.0 0.00 0.00 0.00 65 1010.7
20260510161338 73 164 4.0 4.0 0.00 0.00 0.00 66 1010.5
20260510160836 72 182 2.0 7.0 0.00 0.00 0.00 70 1010.6
20260510160333 72 311 4.0 4.0 0.00 0.00 0.00 71 1010.7
20260510155826 71 183 1.0 6.0 0.00 0.00 0.00 73 1010.7
20260510155324 71 141 3.0 3.0 0.00 0.00 0.00 72 1010.8
20260510154820 71 131 7.0 8.0 0.00 0.00 0.00 74 1010.8
20260510154315 71 91 1.0 5.0 0.00 0.00 0.00 75 1010.8
20260510153810 71 101 4.0 8.0 0.00 0.00 0.00 73 1010.8
20260510153306 71 113 4.0 7.0 0.00 0.00 0.00 74 1010.8
20260510152803 71 96 2.0 4.0 0.00 0.00 0.00 74 1010.7
20260510152300 71 110 5.0 7.0 0.00 0.00 0.00 75 1010.7
20260510151756 70 217 3.0 4.0 0.00 0.00 0.00 75 1010.7
20260510151255 70 101 5.0 5.0 0.00 0.00 0.00 76 1010.7
20260510150750 69 79 2.0 5.0 0.00 0.00 0.00 76 1010.7
20260510150246 69 104 1.0 6.0 0.00 0.00 0.00 78 1010.7
20260510145742 68 108 2.0 5.0 0.00 0.00 0.00 78 1010.3
20260510145239 70 134 4.0 4.0 0.00 0.00 0.00 76 1010.5
20260510144734 70 132 2.0 4.0 0.00 0.00 0.00 77 1010.2
20260510144232 70 104 2.0 4.0 0.00 0.00 0.00 77 1010.3
20260510143726 70 108 4.0 4.0 0.00 0.00 0.00 77 1010.1
20260510143223 70 155 0.0 3.0 0.00 0.00 0.00 78 1009.9
20260510142719 69 126 2.0 4.0 0.00 0.00 0.00 78 1009.8
20260510142216 69 107 3.0 4.0 0.00 0.00 0.00 80 1009.8
20260510141714 69 134 3.0 5.0 0.00 0.00 0.00 79 1010.1
20260510141212 70 203 2.0 4.0 0.00 0.00 0.00 77 1010.0
20260510140708 70 25 0.0 2.0 0.00 0.00 0.00 71 1010.2
20260510140207 69 350 2.0 3.0 0.00 0.00 0.00 74 1010.2
20260510135702 70 67 2.0 4.0 0.00 0.00 0.00 73 1010.0
20260510135158 69 57 0.0 2.0 0.00 0.00 0.00 73 1009.8
20260510134656 69 116 0.0 3.0 0.00 0.00 0.00 77 1010.0
20260510134153 68 349 0.0 3.0 0.00 0.00 0.00 76 1010.0
20260510133649 68 1 1.0 3.0 0.00 0.00 0.00 78 1009.9
20260510133144 67 322 1.0 2.0 0.00 0.00 0.00 80 1010.3
20260510132641 66 1 1.0 3.0 0.00 0.00 0.00 79 1010.1
20260510132139 66 118 2.0 3.0 0.00 0.00 0.00 83 1010.4
20260510131636 65 102 3.0 4.0 0.00 0.00 0.00 82 1010.4
20260510131134 65 182 2.0 3.0 0.00 0.00 0.00 83 1010.4
20260510130630 64 122 1.0 3.0 0.00 0.00 0.00 84 1010.3
20260510130127 64 115 3.0 4.0 0.00 0.00 0.00 85 1010.5
20260510125623 64 101 1.0 2.0 0.00 0.00 0.00 87 1010.8
20260510125120 63 64 1.0 2.0 0.00 0.00 0.00 87 1010.4
20260510124617 62 33 1.0 3.0 0.00 0.00 0.00 88 1010.5
20260510124114 62 17 2.0 4.0 0.00 0.00 0.00 89 1010.4
20260510123609 62 314 2.0 3.0 0.00 0.00 0.00 89 1010.3
20260510123105 61 328 1.0 4.0 0.00 0.00 0.00 90 1010.5
20260510122601 61 345 2.0 3.0 0.00 0.00 0.00 91 1010.3
20260510122057 60 325 2.0 3.0 0.00 0.00 0.00 92 1010.1
20260510121554 60 2 1.0 3.0 0.00 0.00 0.00 94 1010.3
20260510121051 59 302 2.0 4.0 0.00 0.00 0.00 94 1010.3
20260510120549 59 12 2.0 3.0 0.00 0.00 0.00 95 1010.2
20260510120044 58 322 3.0 5.0 0.00 0.00 0.00 96 1010.2
20260510115541 58 23 3.0 3.0 0.00 0.00 0.00 97 1010.1
20260510115038 57 339 2.0 4.0 0.00 0.00 0.00 98 1009.9
20260510114534 57 6 2.0 2.0 0.00 0.00 0.00 98 1009.8
20260510114030 57 324 3.0 4.0 0.00 0.00 0.00 99 1009.9
20260510113526 56 329 2.0 3.0 0.00 0.00 0.00 99 1009.6
20260510113024 56 341 2.0 2.0 0.00 0.00 0.00 99 1009.9
20260510112520 56 359 2.0 3.0 0.00 0.00 0.00 99 1009.5
20260510112016 56 344 1.0 3.0 0.00 0.00 0.00 99 1009.6
20260510111513 56 9 2.0 3.0 0.00 0.00 0.00 99 1009.5
20260510111009 56 49 0.0 2.0 0.00 0.00 0.00 99 1009.2
20260510110505 55 318 2.0 3.0 0.00 0.00 0.00 99 1009.1
20260510110002 55 327 2.0 2.0 0.00 0.00 0.00 99 1009.0
20260510105456 55 8 2.0 2.0 0.00 0.00 0.00 99 1009.3
20260510104952 55 356 2.0 2.0 0.00 0.00 0.00 99 1009.0
20260510104449 55 49 0.0 2.0 0.00 0.00 0.00 99 1008.7
20260510103945 55 346 2.0 4.0 0.00 0.00 0.00 99 1008.9
20260510103443 54 18 0.0 3.0 0.00 0.00 0.00 99 1008.7
20260510102938 55 352 1.0 2.0 0.00 0.00 0.00 99 1008.6
20260510102434 54 9 1.0 2.0 0.00 0.00 0.00 99 1008.6
20260510101931 54 354 2.0 3.0 0.00 0.00 0.00 99 1008.6
20260510101429 54 347 2.0 3.0 0.00 0.00 0.00 99 1008.8
20260510100927 54 324 2.0 3.0 0.00 0.00 0.00 99 1008.6
20260510100423 53 348 2.0 2.0 0.00 0.00 0.00 99 1008.4
20260510095919 53 356 2.0 3.0 0.00 0.00 0.00 99 1008.5
20260510095415 54 0 2.0 3.0 0.00 0.00 0.00 99 1008.4
20260510094914 54 32 1.0 2.0 0.00 0.00 0.00 99 1008.4
20260510094409 53 49 1.0 2.0 0.00 0.00 0.00 99 1008.4
20260510093905 53 45 1.0 2.0 0.00 0.00 0.00 99 1008.4
20260510093401 53 29 2.0 2.0 0.00 0.00 0.00 99 1008.4
20260510092858 53 11 0.0 2.0 0.00 0.00 0.00 99 1008.6
20260510092355 54 114 1.0 1.0 0.00 0.00 0.00 99 1008.5
20260510091849 54 62 1.0 2.0 0.00 0.00 0.00 99 1008.3
20260510091347 54 17 2.0 2.0 0.00 0.00 0.00 99 1008.4
20260510090843 54 56 0.0 2.0 0.00 0.00 0.00 99 1008.3
20260510090340 54 41 1.0 2.0 0.00 0.00 0.00 99 1008.1
20260510085835 54 34 1.0 2.0 0.00 0.00 0.00 99 1008.1
20260510085330 54 9 0.0 2.0 0.00 0.00 0.00 99 1007.9
20260510084826 54 0 2.0 2.0 0.00 0.00 0.00 99 1007.9
20260510084324 54 3 1.0 2.0 0.00 0.00 0.00 99 1008.0
20260510083820 54 12 1.0 2.0 0.00 0.00 0.00 99 1007.7
20260510083317 54 17 2.0 2.0 0.00 0.00 0.00 99 1007.6
20260510082812 55 4 0.0 2.0 0.00 0.00 0.00 99 1007.5
20260510082310 55 12 2.0 3.0 0.00 0.00 0.00 99 1007.4
20260510081809 55 356 0.0 2.0 0.00 0.00 0.00 99 1007.6
20260510081305 54 4 1.0 2.0 0.00 0.00 0.00 99 1007.4
20260510080801 54 2 1.0 2.0 0.00 0.00 0.00 99 1007.4
20260510080255 54 13 0.0 2.0 0.00 0.00 0.00 99 1007.4
20260510075753 54 0 2.0 2.0 0.00 0.00 0.00 99 1007.4
20260510075250 54 13 2.0 2.0 0.00 0.00 0.00 99 1007.4
20260510074747 54 8 1.0 2.0 0.00 0.00 0.00 99 1007.2
20260510074244 54 15 0.0 2.0 0.00 0.00 0.00 99 1007.2
20260510073740 55 28 1.0 2.0 0.00 0.00 0.00 99 1007.2
20260510073236 55 46 2.0 2.0 0.00 0.00 0.00 99 1007.0
20260510072731 55 62 0.0 2.0 0.00 0.00 0.00 99 1007.0
20260510072228 55 48 1.0 2.0 0.00 0.00 0.00 99 1007.3
20260510071725 55 52 0.0 2.0 0.00 0.00 0.00 99 1007.1
20260510071222 55 32 2.0 2.0 0.00 0.00 0.00 99 1007.1
20260510070720 55 31 0.0 2.0 0.00 0.00 0.00 99 1007.0
20260510070217 55 51 1.0 2.0 0.00 0.00 0.00 99 1007.0
20260510065712 55 23 1.0 2.0 0.00 0.00 0.00 99 1006.9
20260510065208 55 51 1.0 2.0 0.00 0.00 0.00 99 1007.2
20260510064705 55 58 1.0 2.0 0.00 0.00 0.00 99 1007.0
20260510064203 56 15 2.0 2.0 0.00 0.00 0.00 99 1006.9
20260510063659 56 6 1.0 2.0 0.00 0.00 0.00 99 1006.9
20260510063155 56 8 1.0 2.0 0.00 0.00 0.00 99 1007.0
20260510062652 56 317 0.0 2.0 0.00 0.00 0.00 99 1007.1
20260510062148 56 348 0.0 2.0 0.00 0.00 0.00 99 1006.8
20260510061643 56 5 0.0 2.0 0.00 0.00 0.00 99 1006.9
20260510061141 56 77 1.0 2.0 0.00 0.00 0.00 99 1006.9
20260510060637 57 30 0.0 2.0 0.00 0.00 0.00 99 1006.9
20260510060134 57 58 1.0 2.0 0.00 0.00 0.00 99 1007.0
20260510055630 56 11 0.0 2.0 0.00 0.00 0.00 99 1006.8
20260510055128 57 1 2.0 2.0 0.00 0.00 0.00 99 1006.9
20260510054623 57 5 0.0 2.0 0.00 0.00 0.00 99 1007.0
20260510054119 57 352 0.0 2.0 0.00 0.00 0.00 99 1007.0
20260510053618 57 68 2.0 2.0 0.00 0.00 0.00 99 1007.1
20260510053115 57 3 2.0 2.0 0.00 0.00 0.00 98 1007.2
20260510052611 57 10 1.0 2.0 0.00 0.00 0.00 98 1007.2
20260510052108 57 59 2.0 2.0 0.00 0.00 0.00 98 1007.3
20260510051603 57 41 1.0 2.0 0.00 0.00 0.00 98 1007.1
20260510051101 57 14 1.0 2.0 0.00 0.00 0.00 98 1007.4
20260510050558 57 42 2.0 2.0 0.00 0.00 0.00 98 1006.9
20260510050055 58 46 1.0 2.0 0.00 0.00 0.00 98 1007.1
20260510045552 57 17 1.0 2.0 0.00 0.00 0.00 98 1007.0
20260510045048 58 17 0.0 2.0 0.00 0.00 0.00 98 1007.2
20260510044544 58 28 1.0 2.0 0.00 0.00 0.00 98 1007.0
20260510044042 58 5 2.0 2.0 0.00 0.00 0.00 98 1007.4
20260510043537 58 359 0.0 2.0 0.00 0.00 0.00 97 1007.3
20260510043033 58 350 2.0 2.0 0.00 0.00 0.00 97 1007.2
20260510042527 58 0 2.0 2.0 0.00 0.00 0.00 96 1007.0
20260510042022 58 32 2.0 2.0 0.00 0.00 0.00 96 1007.1
20260510041520 59 59 2.0 2.0 0.00 0.00 0.00 96 1007.2
20260510041017 59 30 2.0 2.0 0.00 0.00 0.00 95 1007.0
20260510040514 59 37 0.0 2.0 0.00 0.00 0.00 95 1007.2
20260510040009 59 59 1.0 2.0 0.00 0.00 0.00 95 1007.0
20260510035507 59 53 1.0 2.0 0.00 0.00 0.00 95 1007.2
20260510035005 59 39 0.0 2.0 0.00 0.00 0.00 94 1007.0
20260510034505 59 42 1.0 2.0 0.00 0.00 0.00 94 1007.1
20260510034000 59 49 1.0 2.0 0.00 0.00 0.00 94 1007.1
20260510033456 60 22 0.0 1.0 0.00 0.00 0.00 94 1007.0
20260510032954 60 32 1.0 2.0 0.00 0.00 0.00 94 1006.9
20260510032451 60 40 0.0 1.0 0.00 0.00 0.00 93 1007.0
20260510031951 60 35 0.0 1.0 0.00 0.00 0.00 93 1006.8
20260510031447 60 23 0.0 2.0 0.00 0.00 0.00 93 1007.0
20260510030943 60 64 1.0 2.0 0.00 0.00 0.00 93 1006.8
20260510030438 60 44 0.0 2.0 0.00 0.00 0.00 93 1006.7
20260510025936 60 4 1.0 2.0 0.00 0.00 0.00 93 1006.8
20260510025433 60 356 1.0 2.0 0.00 0.00 0.00 92 1006.8
20260510024930 60 33 0.0 2.0 0.00 0.00 0.00 91 1006.5
20260510024426 61 12 1.0 2.0 0.00 0.00 0.00 90 1006.7
20260510023923 61 20 0.0 1.0 0.00 0.00 0.00 90 1006.7
20260510023419 61 67 1.0 2.0 0.00 0.00 0.00 90 1006.6
20260510022917 61 60 1.0 2.0 0.00 0.00 0.00 89 1006.8
20260510022415 61 38 2.0 2.0 0.00 0.00 0.00 89 1006.4
20260510021914 61 62 1.0 2.0 0.00 0.00 0.00 88 1006.5
20260510021413 62 53 0.0 2.0 0.00 0.00 0.00 88 1006.9
20260510020909 62 62 0.0 2.0 0.00 0.00 0.00 88 1006.8
20260510020404 62 357 2.0 2.0 0.00 0.00 0.00 87 1006.7
20260510015900 62 352 1.0 2.0 0.00 0.00 0.00 86 1006.5
20260510015356 63 2 1.0 2.0 0.00 0.00 0.00 86 1006.4
20260510014851 63 25 0.0 2.0 0.00 0.00 0.00 85 1006.3
20260510014349 63 72 1.0 2.0 0.00 0.00 0.00 85 1006.2
20260510013845 64 67 2.0 2.0 0.00 0.00 0.00 84 1006.3
20260510013340 64 42 2.0 3.0 0.00 0.00 0.00 84 1006.4
20260510012835 64 129 0.0 2.0 0.00 0.00 0.00 84 1006.3
20260510012330 64 130 1.0 3.0 0.00 0.00 0.00 83 1006.1
20260510011825 64 175 0.0 2.0 0.00 0.00 0.00 83 1006.1
20260510011320 64 43 1.0 2.0 0.00 0.00 0.00 83 1005.9
20260510010817 64 49 0.0 2.0 0.00 0.00 0.00 83 1005.9
20260510010315 64 66 2.0 2.0 0.00 0.00 0.00 83 1006.0
20260510005811 64 93 2.0 2.0 0.00 0.00 0.00 83 1006.0
20260510005307 64 358 2.0 2.0 0.00 0.00 0.00 82 1005.9
20260510004805 64 57 2.0 3.0 0.00 0.00 0.00 82 1005.9
20260510004303 65 23 0.0 2.0 0.00 0.00 0.00 82 1006.0
20260510003800 65 102 2.0 2.0 0.00 0.00 0.00 82 1005.9
20260510003257 65 19 2.0 2.0 0.00 0.00 0.00 81 1005.8
20260510002755 65 86 1.0 3.0 0.00 0.00 0.00 80 1005.8
20260510002253 66 109 2.0 3.0 0.00 0.00 0.00 80 1005.7
20260510001749 66 97 2.0 5.0 0.00 0.00 0.00 79 1005.7
20260510001248 66 113 1.0 6.0 0.00 0.00 0.00 78 1005.8
20260510000743 66 46 1.0 3.0 0.00 0.00 0.00 76 1005.6
20260510000241 66 24 0.0 5.0 0.00 0.00 0.00 75 1005.5
20260509235737 66 350 1.0 3.0 0.00 0.00 0.00 76 1005.6
20260509235234 67 96 3.0 4.0 0.00 0.00 0.00 76 1005.7
20260509234730 67 94 3.0 4.0 0.00 0.00 0.00 75 1005.6
20260509234227 67 101 2.0 4.0 0.00 0.00 0.00 76 1005.6
20260509233725 67 6 0.0 3.0 0.00 0.00 0.00 76 1005.7
20260509233223 67 97 3.0 4.0 0.00 0.00 0.00 76 1005.4
20260509232718 67 61 3.0 5.0 0.00 0.00 0.00 75 1005.4
20260509232216 67 105 2.0 5.0 0.00 0.00 0.00 75 1005.3
20260509231712 68 99 2.0 4.0 0.00 0.00 0.00 75 1005.4
20260509231209 68 96 2.0 4.0 0.00 0.00 0.00 76 1005.4
20260509230706 67 40 2.0 4.0 0.00 0.00 0.00 77 1005.4
20260509230157 67 95 3.0 5.0 0.00 0.00 0.00 77 1005.3
20260509225653 67 147 4.0 4.0 0.00 0.00 0.00 77 1005.5
20260509225149 67 156 4.0 5.0 0.00 0.00 0.00 77 1005.5
20260509224645 67 185 3.0 3.0 0.00 0.00 0.00 77 1005.3
20260509224142 67 79 2.0 4.0 0.00 0.00 0.00 76 1005.3
20260509223639 67 107 2.0 6.0 0.00 0.00 0.00 76 1005.4
20260509223136 68 138 3.0 9.0 0.00 0.00 0.00 76 1005.7
20260509222633 68 181 2.0 8.0 0.00 0.00 0.00 74 1005.6
20260509222128 68 85 4.0 4.0 0.00 0.00 0.00 74 1005.6
20260509221624 68 164 2.0 3.0 0.00 0.00 0.00 74 1005.5
20260509221120 68 73 2.0 5.0 0.00 0.00 0.00 73 1005.4
20260509220616 68 237 2.0 5.0 0.00 0.00 0.00 73 1005.4
20260509220113 69 171 2.0 3.0 0.00 0.00 0.00 72 1005.5
20260509215609 70 60 2.0 3.0 0.00 0.00 0.00 70 1005.3
20260509215106 69 176 2.0 5.0 0.00 0.00 0.00 70 1005.4
20260509214603 69 142 4.0 6.0 0.00 0.00 0.00 71 1005.4
20260509214059 69 84 2.0 5.0 0.00 0.00 0.00 72 1005.4
20260509213555 69 205 3.0 3.0 0.00 0.00 0.00 70 1005.3
20260509213052 69 319 2.0 5.0 0.00 0.00 0.00 70 1005.3
20260509212550 70 108 2.0 4.0 0.00 0.00 0.00 72 1005.3
20260509212046 70 75 3.0 5.0 0.00 0.00 0.00 71 1005.3
20260509211542 70 179 2.0 4.0 0.00 0.00 0.00 70 1005.0
20260509211039 69 146 2.0 6.0 0.00 0.00 0.00 70 1005.0
20260509210536 69 94 4.0 4.0 0.00 0.00 0.00 72 1004.9
20260509210032 69 123 4.0 6.0 0.00 0.00 0.00 72 1005.1
20260509205526 69 137 2.0 8.0 0.00 0.00 0.00 72 1005.1
20260509205022 69 84 2.0 7.0 0.00 0.00 0.00 71 1005.1
20260509204519 69 95 2.0 4.0 0.00 0.00 0.00 70 1005.0
20260509204015 69 120 2.0 9.0 0.00 0.00 0.00 71 1005.1
20260509203511 70 0 2.0 7.0 0.00 0.00 0.00 69 1005.1
20260509203009 71 248 2.0 4.0 0.00 0.00 0.00 69 1005.3
20260509202503 69 76 4.0 8.0 0.00 0.00 0.00 69 1005.3
20260509201959 70 145 4.0 4.0 0.00 0.00 0.00 69 1005.4
20260509201454 70 126 3.0 5.0 0.00 0.00 0.00 69 1005.5
20260509200952 70 154 0.0 5.0 0.00 0.00 0.00 68 1005.6
20260509200446 71 282 4.0 4.0 0.00 0.00 0.00 68 1005.5
20260509195943 70 101 7.0 7.0 0.00 0.00 0.00 68 1005.3
20260509195439 70 139 2.0 8.0 0.00 0.00 0.00 70 1005.7
20260509194938 69 165 2.0 5.0 0.00 0.00 0.00 71 1005.7
20260509194434 69 157 5.0 5.0 0.00 0.00 0.00 71 1005.7
20260509193931 69 105 1.0 4.0 0.00 0.00 0.00 71 1005.8
20260509193431 69 106 6.0 6.0 0.00 0.00 0.00 72 1005.9
20260509192927 69 75 2.0 8.0 0.00 0.00 0.00 72 1005.8
20260509192424 70 154 3.0 6.0 0.00 0.00 0.00 70 1005.7
20260509191919 70 64 1.0 4.0 0.00 0.00 0.00 69 1006.0
20260509191414 69 84 3.0 4.0 0.00 0.00 0.00 73 1006.3
20260509190911 69 92 2.0 3.0 0.00 0.00 0.00 73 1006.1
20260509190408 68 128 8.0 9.0 0.00 0.00 0.00 73 1006.2
20260509185906 68 94 4.0 6.0 0.00 0.00 0.00 73 1006.6
20260509185403 68 131 2.0 4.0 0.00 0.00 0.00 73 1006.7
20260509184859 68 69 0.0 5.0 0.00 0.00 0.00 73 1006.9
20260509184356 69 97 3.0 3.0 0.00 0.00 0.00 72 1006.6
20260509183854 68 265 5.0 7.0 0.00 0.00 0.00 71 1006.7
20260509183348 69 262 0.0 6.0 0.00 0.00 0.00 69 1006.7
20260509182844 72 100 3.0 3.0 0.00 0.00 0.00 58 1006.7
20260509182341 72 57 3.0 3.0 0.00 0.00 0.00 57 1006.7
20260509181838 72 257 1.0 4.0 0.00 0.00 0.00 56 1006.8
20260509181336 72 93 1.0 4.0 0.00 0.00 0.00 57 1007.0
20260509180833 72 11 2.0 4.0 0.00 0.00 0.00 57 1006.6
20260509180329 71 314 4.0 4.0 0.00 0.00 0.00 56 1007.0